When you browse on this site, cookies collect data to enhance your experience and personalize the content and advertising you see.
Visit our Privacy Policy to learn more. By continuing to use the site, you agree to this use of cookies and data.
  • In Hungary
  • List of Countries
  • For 7 days
  • Water Temperature
  • Satellite Maps
  • Weather Map
  • News
  • Weather Widgets
  • user-avatar
    Login

    Hourly Weather Zalesovo

    Today, 18 January, Friday

    Time Temperature Precipitation Wind Pressure Humidity
    00:00 -5°C° 0.1 mm 9 mps 732 mmHg 85%
    01:00 -4°C° 0.1 mm 9 mps 732 mmHg 86%
    02:00 -4°C° 0.1 mm 9 mps 733 mmHg 87%
    03:00 -4°C° 0 mm 9 mps 733 mmHg 87%
    04:00 -4°C° 0 mm 8 mps 733 mmHg 88%
    05:00 -4°C° 0 mm 8 mps 733 mmHg 89%
    06:00 -2°C° 0 mm 8 mps 734 mmHg 89%
    07:00 -2°C° 0 mm 7 mps 734 mmHg 89%
    08:00 -2°C° 0 mm 7 mps 734 mmHg 89%
    09:00 -2°C° 0 mm 7 mps 735 mmHg 89%
    10:00 -2°C° 0 mm 6 mps 735 mmHg 90%
    11:00 -2°C° 0 mm 6 mps 736 mmHg 91%
    12:00 -2°C° 0 mm 6 mps 736 mmHg 92%
    13:00 -2°C° 0 mm 6 mps 736 mmHg 92%
    14:00 -1°C° 0 mm 5 mps 736 mmHg 92%
    15:00 -1°C° 0 mm 5 mps 736 mmHg 93%
    16:00 -1°C° 0.1 mm 5 mps 736 mmHg 92%
    17:00 -1°C° 0.1 mm 5 mps 736 mmHg 92%
    18:00 -2°C° 0.1 mm 6 mps 735 mmHg 92%
    19:00 -2°C° 0.4 mm 6 mps 735 mmHg 92%
    20:00 -2°C° 0.4 mm 7 mps 734 mmHg 91%
    21:00 -2°C° 0.4 mm 7 mps 734 mmHg 91%
    22:00 -2°C° 0.3 mm 7 mps 734 mmHg 90%
    23:00 -2°C° 0.3 mm 7 mps 734 mmHg 89%

    Tomorrow, 19 January, Saturday

    Time Temperature Precipitation Wind Pressure Humidity
    00:00 -2°C° 0.3 mm 7 mps 734 mmHg 89%
    01:00 -2°C° 0 mm 7 mps 734 mmHg 88%
    02:00 -3°C° 0 mm 7 mps 735 mmHg 87%
    03:00 -3°C° 0 mm 7 mps 735 mmHg 86%
    04:00 -5°C° 0.1 mm 6 mps 736 mmHg 87%
    05:00 -6°C° 0.1 mm 6 mps 736 mmHg 88%
    06:00 -9°C° 0.1 mm 6 mps 737 mmHg 90%
    07:00 -11°C° 0 mm 5 mps 738 mmHg 91%
    08:00 -11°C° 0 mm 4 mps 738 mmHg 92%
    09:00 -14°C° 0 mm 4 mps 739 mmHg 93%
    10:00 -12°C° 0 mm 4 mps 740 mmHg 92%
    11:00 -12°C° 0 mm 5 mps 740 mmHg 92%
    12:00 -12°C° 0 mm 5 mps 740 mmHg 91%
    13:00 -12°C° 0 mm 5 mps 741 mmHg 91%
    14:00 -11°C° 0 mm 6 mps 741 mmHg 90%
    15:00 -11°C° 0 mm 6 mps 741 mmHg 90%
    16:00 -11°C° 0 mm 5 mps 741 mmHg 90%
    17:00 -11°C° 0 mm 5 mps 741 mmHg 89%
    18:00 -10°C° 0 mm 4 mps 742 mmHg 89%
    19:00 -11°C° 0 mm 5 mps 742 mmHg 89%
    20:00 -11°C° 0 mm 5 mps 742 mmHg 89%
    21:00 -10°C° 0 mm 5 mps 742 mmHg 89%
    22:00 -11°C° 0 mm 5 mps 743 mmHg 89%
    23:00 -11°C° 0 mm 5 mps 743 mmHg 90%

    Day after tomorrow, 20 January, Sunday

    Time Temperature Precipitation Wind Pressure Humidity
    00:00 -11°C° 0 mm 5 mps 743 mmHg 91%
    01:00 -11°C° 0 mm 5 mps 744 mmHg 91%
    02:00 -12°C° 0 mm 5 mps 744 mmHg 92%
    03:00 -12°C° 0 mm 5 mps 744 mmHg 93%
    04:00 -11°C° 0 mm 4 mps 744 mmHg 93%
    05:00 -12°C° 0 mm 4 mps 744 mmHg 93%
    06:00 -12°C° 0 mm 4 mps 744 mmHg 94%
    07:00 -12°C° 0 mm 4 mps 744 mmHg 94%
    08:00 -12°C° 0 mm 4 mps 744 mmHg 94%
    09:00 -13°C° 0 mm 5 mps 744 mmHg 94%
    10:00 -12°C° 0 mm 5 mps 744 mmHg 93%
    11:00 -10°C° 0 mm 6 mps 744 mmHg 91%
    12:00 -9°C° 0 mm 6 mps 744 mmHg 90%
    13:00 -9°C° 0 mm 6 mps 743 mmHg 89%
    14:00 -9°C° 0 mm 7 mps 743 mmHg 88%
    15:00 -9°C° 0 mm 7 mps 743 mmHg 87%
    16:00 -9°C° 0 mm 7 mps 742 mmHg 87%
    17:00 -9°C° 0 mm 7 mps 742 mmHg 87%
    18:00 -11°C° 0 mm 7 mps 742 mmHg 87%
    19:00 -11°C° 0 mm 7 mps 742 mmHg 86%
    20:00 -12°C° 0 mm 7 mps 741 mmHg 85%
    21:00 -13°C° 0 mm 7 mps 741 mmHg 84%
    22:00 -13°C° 0 mm 7 mps 741 mmHg 84%
    23:00 -14°C° 0 mm 7 mps 741 mmHg 84%

    21 January, Monday

    Time Temperature Precipitation Wind Pressure Humidity
    00:00 -14°C° 0 mm 7 mps 741 mmHg 85%
    01:00 -15°C° 0 mm 6 mps 741 mmHg 86%
    02:00 -15°C° 0 mm 6 mps 740 mmHg 87%
    03:00 -15°C° 0 mm 6 mps 740 mmHg 89%
    04:00 -14°C° 0 mm 5 mps 740 mmHg 90%
    05:00 -14°C° 0 mm 5 mps 740 mmHg 91%
    06:00 -14°C° 0 mm 5 mps 739 mmHg 92%
    07:00 -14°C° 0.1 mm 5 mps 739 mmHg 93%
    08:00 -14°C° 0.1 mm 4 mps 739 mmHg 93%
    09:00 -14°C° 0.1 mm 4 mps 739 mmHg 93%
    10:00 -12°C° 0 mm 4 mps 739 mmHg 92%
    11:00 -12°C° 0 mm 4 mps 739 mmHg 90%
    12:00 -11°C° 0 mm 4 mps 740 mmHg 88%
    13:00 -12°C° 0 mm 4 mps 740 mmHg 90%
    14:00 -14°C° 0 mm 4 mps 740 mmHg 91%
    15:00 -15°C° 0 mm 4 mps 740 mmHg 92%
    16:00 -16°C° 0 mm 4 mps 740 mmHg 92%
    17:00 -17°C° 0 mm 4 mps 740 mmHg 93%
    18:00 -18°C° 0 mm 4 mps 740 mmHg 93%
    19:00 -18°C° 0 mm 4 mps 741 mmHg 94%
    20:00 -19°C° 0 mm 4 mps 741 mmHg 94%
    21:00 -19°C° 0 mm 4 mps 741 mmHg 95%
    22:00 -19°C° 0 mm 4 mps 742 mmHg 95%
    23:00 -20°C° 0 mm 4 mps 742 mmHg 95%

    22 January, Tuesday

    Time Temperature Precipitation Wind Pressure Humidity
    00:00 -20°C° 0 mm 4 mps 742 mmHg 96%
    01:00 -20°C° 0 mm 4 mps 742 mmHg 96%
    02:00 -22°C° 0 mm 4 mps 743 mmHg 96%
    03:00 -22°C° 0 mm 4 mps 743 mmHg 96%
    04:00 -22°C° 0 mm 4 mps 744 mmHg 96%
    05:00 -22°C° 0 mm 4 mps 744 mmHg 96%
    06:00 -23°C° 0 mm 4 mps 744 mmHg 96%
    07:00 -23°C° 0 mm 4 mps 744 mmHg 96%
    08:00 -23°C° 0 mm 4 mps 745 mmHg 97%
    09:00 -24°C° 0 mm 4 mps 745 mmHg 97%
    10:00 -22°C° 0 mm 4 mps 745 mmHg 96%
    11:00 -20°C° 0 mm 4 mps 746 mmHg 95%
    12:00 -19°C° 0 mm 4 mps 746 mmHg 94%
    13:00 -19°C° 0 mm 4 mps 746 mmHg 94%
    14:00 -17°C° 0 mm 3 mps 746 mmHg 94%
    15:00 -17°C° 0 mm 3 mps 746 mmHg 94%
    16:00 -18°C° 0 mm 3 mps 746 mmHg 95%
    17:00 -19°C° 0 mm 3 mps 746 mmHg 96%
    18:00 -19°C° 0 mm 3 mps 746 mmHg 97%
    19:00 -18°C° 0 mm 3 mps 746 mmHg 96%
    20:00 -16°C° 0 mm 3 mps 746 mmHg 96%
    21:00 -14°C° 0 mm 2 mps 745 mmHg 96%
    22:00 -14°C° 0.2 mm 3 mps 746 mmHg 95%
    23:00 -13°C° 0.2 mm 3 mps 746 mmHg 95%

    23 January, Wednesday

    Time Temperature Precipitation Wind Pressure Humidity
    00:00 -12°C° 0.2 mm 3 mps 746 mmHg 95%
    01:00 -12°C° 0.2 mm 3 mps 746 mmHg 95%
    02:00 -12°C° 0.2 mm 3 mps 746 mmHg 95%
    03:00 -10°C° 0.2 mm 2 mps 746 mmHg 96%
    04:00 -10°C° 0.1 mm 2 mps 746 mmHg 96%
    05:00 -12°C° 0.1 mm 2 mps 746 mmHg 96%
    06:00 -10°C° 0.1 mm 1 mps 746 mmHg 97%
    07:00 -11°C° 0 mm 1 mps 747 mmHg 97%
    08:00 -11°C° 0 mm 1 mps 747 mmHg 97%
    09:00 -11°C° 0 mm 1 mps 748 mmHg 97%
    10:00 -11°C° 0 mm 1 mps 748 mmHg 96%
    11:00 -10°C° 0 mm 1 mps 748 mmHg 96%
    12:00 -10°C° 0 mm 2 mps 749 mmHg 95%
    13:00 -12°C° 0 mm 2 mps 749 mmHg 94%
    14:00 -12°C° 0 mm 2 mps 749 mmHg 94%
    15:00 -12°C° 0 mm 2 mps 749 mmHg 93%
    16:00 -15°C° 0 mm 3 mps 749 mmHg 92%
    17:00 -16°C° 0 mm 3 mps 749 mmHg 91%
    18:00 -18°C° 0 mm 3 mps 749 mmHg 90%
    19:00 -18°C° 0 mm 3 mps 750 mmHg 90%
    20:00 -18°C° 0 mm 3 mps 750 mmHg 90%
    21:00 -19°C° 0 mm 3 mps 750 mmHg 90%
    22:00 -19°C° 0 mm 3 mps 750 mmHg 90%
    23:00 -19°C° 0 mm 3 mps 751 mmHg 90%
    Show more